Overview Statistics Trail Chart Weather Telemetry Raw packets
 

This is the latest recevied weather packets stored in our database for station/object N6ZHV-13. If no packets are shown the sender has not sent any weather packets the latest 10 day(s).

<< 6 7 8 9 10 11 12 >>
Time Temp. Humidity Pressure Rain* Wind** Luminosity Snow
1788637021 28.89° C 32% 1009.9 hPa 0 mm - - -
1788636721 28.89° C 32% 1010 hPa 0 mm - - -
1788636421 28.33° C 33% 1010.1 hPa 0 mm - - -
1788636121 28.33° C 32% 1010.1 hPa 0 mm - - -
1788635821 28.33° C 33% 1010.1 hPa 0 mm - - -
1788635521 28.89° C 33% 1010.2 hPa 0 mm - - -
1788635221 28.33° C 33% 1010.2 hPa 0 mm - - -
1788634921 28.89° C 32% 1010.3 hPa 0 mm - - -
1788634621 28.33° C 32% 1010.3 hPa 0 mm - - -
1788634321 28.33° C 34% 1010.4 hPa 0 mm - - -
1788634021 27.78° C 34% 1010.3 hPa 0 mm - - -
1788633721 27.22° C 34% 1010.4 hPa 0 mm - - -
1788633421 27.22° C 34% 1010.5 hPa 0 mm - - -
1788633121 27.22° C 34% 1010.5 hPa 0 mm - - -
1788632821 27.22° C 37% 1010.5 hPa 0 mm - - -
1788632521 27.22° C 36% 1010.5 hPa 0 mm - - -
1788632221 26.67° C 33% 1010.6 hPa 0 mm - - -
1788631921 26.67° C 36% 1010.5 hPa 0 mm - - -
1788631621 26.67° C 39% 1010.5 hPa 0 mm - - -
1788631321 26.67° C 39% 1010.5 hPa 0 mm - - -
1788631021 26.67° C 40% 1010.5 hPa 0 mm - - -
1788630721 26.11° C 40% 1009.9 hPa 0 mm - - -
1788630421 26.11° C 41% 1010.4 hPa 0 mm - - -
1788630121 25.56° C 40% 1010.5 hPa 0 mm - - -
1788629821 25.56° C 40% 1010.4 hPa 0 mm - - -

* Rain latest hour (hover to see other rain measurements)
** Current wind speed in m/s (hover to see current wind gust speed)